Date,TemperatureHighF,TemperatureAvgF,TemperatureLowF,DewpointHighF,DewpointAvgF,DewpointLowF,HumidityHigh,HumidityAvg,HumidityLow,PressureMaxIn,PressureMinIn,WindSpeedMaxMPH,WindSpeedAvgMPH,GustSpeedMaxMPH,PrecipitationSumIn
2013-1-1,19.8,14.0,4.2,10.0,7.1,1.0,85,74,56,30.20,30.03,2,0,0,0.00
2013-1-2,22.5,19.4,15.4,18.0,15.0,10.0,87,83,76,30.13,30.03,1,0,0,0.00
2013-1-3,26.1,22.6,16.6,21.0,16.9,14.0,88,79,66,30.07,29.77,7,0,0,0.00
2013-1-4,36.8,27.8,20.1,25.0,18.3,13.0,80,68,53,30.16,29.80,3,0,0,0.00
2013-1-5,34.0,27.1,18.9,26.0,21.1,15.0,87,78,67,30.19,29.84,7,0,0,0.01
2013-1-6,33.2,23.5,11.3,30.0,19.4,9.0,92,84,74,30.25,29.80,10,1,0,0.00
2013-1-7,37.0,26.7,15.1,25.0,18.5,12.0,89,72,60,30.24,29.76,12,2,0,0.00
2013-1-8,38.0,30.4,19.9,33.0,24.4,17.0,92,79,61,30.12,29.76,7,1,0,0.04
2013-1-9,36.1,33.6,26.6,30.0,26.3,22.0,83,74,66,30.45,29.72,9,1,0,0.04
2013-1-10,40.8,31.2,21.1,31.0,23.2,18.0,90,74,43,30.48,29.99,6,1,0,0.02
2013-1-11,40.1,37.4,34.5,38.0,34.9,31.0,93,90,81,29.98,29.53,4,1,0,0.40
2013-1-12,44.4,38.1,26.7,42.0,31.8,19.0,93,78,64,29.94,29.43,5,1,0,0.00
2013-1-13,26.5,21.3,16.2,19.0,13.7,10.0,78,72,68,30.06,29.92,3,0,0,0.00
2013-1-14,24.2,16.8,10.9,10.0,7.0,2.0,83,66,48,30.37,30.07,3,0,0,0.00
2013-1-15,27.6,17.6,9.4,13.0,6.6,1.0,73,63,42,30.38,29.96,4,1,0,0.00
2013-1-16,30.0,22.6,14.0,25.0,15.8,9.0,89,76,62,30.12,29.55,6,1,0,0.00
2013-1-17,13.6,7.5,1.7,9.0,1.1,-3.0,81,75,61,30.38,30.13,2,0,0,0.00
2013-1-18,17.3,10.4,3.2,15.0,6.2,-2.0,89,83,71,30.39,29.82,1,0,0,0.00
2013-1-19,30.4,21.9,13.3,27.0,18.7,7.0,91,87,77,29.84,29.47,3,0,0,0.00
2013-1-20,12.5,5.9,-4.4,8.0,1.1,-8.0,88,80,70,30.24,29.74,3,0,0,0.00
2013-1-21,1.7,-2.5,-8.0,-6.0,-10.2,-17.0,78,70,53,30.22,30.07,3,0,0,0.00
2013-1-22,1.5,-2.6,-10.7,-8.0,-12.5,-99.9,74,67,59,30.33,0.00,2,-17,0,0.00
2013-1-23,12.0,8.4,-1.7,7.0,0.4,-99.9,87,74,65,30.43,30.09,3,-16,0,0.00
2013-1-24,10.7,6.9,0.5,5.0,0.6,-5.0,85,76,61,30.72,30.44,2,0,0,0.00
2013-1-25,20.3,13.9,8.6,14.0,9.2,1.0,88,82,68,30.43,29.97,2,0,0,0.00
2013-1-26,21.8,19.9,18.4,19.0,15.0,13.0,91,81,70,30.41,30.09,3,0,0,0.00
2013-1-27,32.4,26.2,21.1,28.0,18.8,14.0,92,74,60,30.35,30.02,6,1,0,0.00
2013-1-28,33.7,31.0,28.8,31.0,29.1,27.0,94,92,88,30.01,29.88,3,0,0,0.03
2013-1-29,36.4,33.3,31.6,35.0,31.4,29.0,94,92,88,29.90,29.50,6,1,0,0.45
2013-1-30,32.9,23.3,15.4,30.0,20.3,13.0,92,88,81,29.62,29.43,11,3,0,0.01
2013-1-31,15.5,11.8,9.7,13.0,9.2,7.0,90,89,87,29.99,29.45,5,0,0,0.00
2013-2-1,9.6,5.8,-2.1,7.0,2.1,-6.0,89,84,80,30.19,30.00,1,0,0,0.00
2013-2-2,11.9,2.6,-4.9,6.0,-1.8,-9.0,86,82,76,30.18,30.05,2,0,0,0.00
2013-2-3,13.1,6.7,-3.4,8.0,2.0,-7.0,87,81,69,30.04,29.89,2,0,0,0.00
2013-2-4,14.8,4.0,-4.4,7.0,-1.1,-8.0,85,80,64,30.08,29.96,2,0,0,0.00
2013-2-5,23.1,11.7,-4.3,17.0,7.1,-8.0,87,82,69,30.10,29.76,2,0,0,0.00
2013-2-6,20.5,11.3,-1.8,15.0,6.8,-5.0,89,82,70,30.28,30.10,1,0,0,0.00
2013-2-7,23.6,20.9,17.2,20.0,17.7,15.0,92,87,74,30.29,30.23,7,1,0,0.00
2013-2-8,22.0,17.7,3.3,19.0,12.3,0.0,87,79,72,30.46,30.29,5,1,0,0.00
2013-2-9,29.6,17.9,3.0,20.0,12.7,0.0,90,80,65,30.46,30.15,5,1,0,0.00
2013-2-10,32.8,27.2,21.9,31.0,24.5,19.0,94,89,85,30.16,29.43,3,0,0,0.00
2013-2-11,34.6,28.8,20.1,33.0,26.2,16.0,95,90,82,29.85,29.26,3,0,0,0.20
2013-2-12,26.0,22.5,15.7,20.0,17.6,13.0,91,81,68,29.99,29.79,5,1,0,0.00
2013-2-13,39.5,23.5,11.1,29.0,19.6,9.0,93,85,63,29.79,29.64,2,0,0,0.24
2013-2-14,30.4,24.8,18.2,27.0,21.0,11.0,93,86,69,30.00,29.67,5,1,0,0.00
2013-2-15,18.6,14.5,8.6,13.0,8.3,4.0,81,76,68,30.24,30.01,4,0,0,0.00
2013-2-16,17.1,11.6,5.8,7.0,4.7,1.0,87,75,57,30.25,30.15,4,0,0,0.00
2013-2-17,23.3,13.0,1.0,8.0,2.6,-3.0,82,65,42,30.23,30.00,6,0,0,0.00
2013-2-18,35.4,28.7,16.2,31.0,23.4,4.0,93,81,58,30.00,29.47,5,1,0,0.03
2013-2-19,30.8,17.4,10.0,29.0,14.7,7.0,93,89,85,30.06,29.41,4,1,0,0.00
2013-2-20,15.5,13.0,10.7,13.0,10.3,8.0,89,88,87,30.48,30.07,6,0,0,0.00
2013-2-21,23.5,20.1,14.5,22.0,17.7,12.0,98,90,88,30.56,30.36,9,1,0,0.00
2013-2-22,24.9,21.3,16.2,23.0,19.2,14.0,92,91,89,30.36,29.86,2,0,0,0.00
2013-2-23,32.1,26.0,19.0,29.0,23.8,17.0,93,91,85,29.88,29.77,3,0,0,0.09
2013-2-24,30.0,27.6,26.0,26.0,25.1,24.0,92,90,85,30.16,29.88,2,0,0,0.00
2013-2-25,35.7,29.1,22.1,29.0,25.5,20.0,92,86,73,30.19,30.13,2,0,0,0.04
2013-2-26,33.5,30.5,26.9,29.0,26.7,25.0,92,86,78,30.17,29.98,3,0,0,0.01
2013-2-27,32.2,30.8,30.0,30.0,28.1,26.0,95,89,83,29.98,29.85,11,2,0,0.00
2013-2-28,30.6,26.3,23.7,29.0,22.5,18.0,94,86,75,30.29,29.93,10,3,0,0.00
2013-3-1,24.3,21.4,19.8,19.0,14.8,12.0,84,76,66,30.41,30.28,10,2,0,0.00
2013-3-2,21.5,18.3,7.4,16.0,12.3,4.0,87,77,68,30.34,30.24,9,1,0,0.00
2013-3-3,23.0,16.4,8.8,15.0,11.0,5.0,88,80,67,30.23,30.18,3,0,0,0.00
2013-3-4,25.4,18.4,11.2,20.0,14.1,9.0,90,83,70,30.26,30.18,5,0,0,0.00
2013-3-5,29.2,20.5,9.7,26.0,16.7,7.0,90,85,74,30.25,30.18,8,1,0,0.00
2013-3-6,29.4,26.3,19.0,27.0,23.4,16.0,93,88,84,30.38,30.21,2,0,0,0.01
2013-3-7,26.5,22.8,14.4,22.0,18.0,12.0,90,82,68,30.51,30.36,2,0,0,0.00
2013-3-8,39.2,26.8,11.2,24.0,19.1,9.0,92,74,49,30.53,30.30,4,1,0,0.10
2013-3-9,35.8,32.4,28.5,32.0,28.4,23.0,92,85,78,30.29,29.85,8,2,0,0.19
2013-3-10,35.7,33.8,31.5,34.0,31.3,28.0,94,90,85,30.00,29.78,7,1,0,0.13
2013-3-11,31.6,29.2,24.9,30.0,27.7,23.0,95,94,92,29.94,29.60,9,1,0,0.00
2013-3-12,24.8,21.1,18.1,23.0,17.9,15.0,92,87,79,29.96,29.64,5,0,0,0.00
2013-3-13,28.5,22.3,16.0,19.0,14.4,10.0,89,73,48,30.29,29.97,4,0,0,0.08
2013-3-14,38.7,24.7,7.2,29.0,15.9,4.0,90,72,41,30.30,29.95,4,0,0,0.24
2013-3-15,34.2,23.2,16.5,31.0,17.4,10.0,92,79,69,30.08,29.91,9,1,0,0.00
2013-3-16,21.9,18.6,15.6,18.0,14.9,12.0,94,85,80,30.17,30.02,4,0,0,0.00
2013-3-17,23.8,15.4,9.4,13.0,7.6,3.0,86,72,53,30.38,30.18,2,0,0,0.00
2013-3-18,37.6,24.2,12.7,26.0,18.2,8.0,93,79,47,30.20,29.49,5,0,0,0.03
2013-3-19,28.1,25.0,19.9,26.0,19.2,14.0,93,79,65,29.86,29.44,9,1,0,0.00
2013-3-20,23.2,19.2,14.0,17.0,12.4,10.0,87,75,66,30.01,29.86,3,1,0,0.00
2013-3-21,24.7,22.0,13.7,19.0,16.2,10.0,89,79,68,30.07,29.98,2,0,0,0.00
2013-3-22,29.4,26.3,16.8,25.0,22.5,13.0,91,85,79,30.15,30.03,12,1,0,0.00
2013-3-23,30.7,28.4,25.0,25.0,23.5,21.0,87,82,74,30.20,30.12,3,0,0,0.01
2013-3-24,30.2,27.2,24.6,26.0,22.6,20.0,88,83,78,30.19,30.01,13,1,0,0.00
2013-3-25,31.5,29.4,26.5,26.0,25.1,23.0,91,84,77,30.14,30.00,6,1,0,0.00
2013-3-26,36.1,32.6,30.5,31.0,27.6,24.0,92,82,70,30.24,30.14,4,0,0,0.04
2013-3-27,38.9,33.3,27.8,25.0,22.6,20.0,80,66,48,30.30,30.23,10,1,0,0.08
2013-3-28,39.7,32.8,25.5,29.0,22.5,18.0,82,67,56,30.34,30.29,6,1,0,0.00
2013-3-29,45.2,33.4,22.8,24.0,20.4,18.0,85,62,37,30.34,30.18,3,0,0,0.00
2013-3-30,42.2,36.5,31.5,36.0,29.0,21.0,92,75,51,30.17,29.76,7,1,0,0.19
2013-3-31,41.8,33.0,22.9,33.0,27.2,19.0,94,80,51,29.88,29.57,10,1,0,0.00
2013-4-1,26.7,21.7,18.2,19.0,13.5,9.0,89,72,50,30.12,29.88,5,1,0,0.05
2013-4-2,32.3,23.7,14.7,14.0,10.9,8.0,80,60,38,30.32,30.11,7,1,0,0.01
2013-4-3,38.8,27.8,18.5,25.0,14.6,10.0,76,59,31,30.47,30.12,4,1,0,0.00
2013-4-4,44.1,36.3,29.5,31.0,24.7,17.0,81,63,47,30.11,29.93,9,2,0,0.00
2013-4-5,31.4,29.2,26.0,25.0,18.3,16.0,76,64,57,30.32,30.12,6,1,0,0.00
2013-4-6,37.4,31.2,23.5,33.0,26.3,17.0,90,82,68,30.23,29.66,6,1,0,0.12
2013-4-19,30.0,24.1,21.6,27.0,21.5,19.0,92,89,86,29.80,29.18,6,1,0,0.20
2013-4-20,31.4,24.0,17.9,20.0,17.7,15.0,91,78,57,30.49,29.81,5,1,0,0.13
2013-4-21,45.1,32.0,16.4,29.0,21.7,14.0,89,68,42,30.55,30.24,11,2,0,0.00
2013-4-22,40.9,36.5,33.0,37.0,33.5,29.0,94,89,71,30.27,30.16,7,1,0,0.57
2013-4-23,36.1,33.3,30.4,33.0,31.0,27.0,95,91,83,30.20,29.93,4,1,0,0.16
2013-4-24,41.1,34.2,26.0,27.0,23.8,19.0,89,68,46,30.03,29.93,3,0,0,0.00
2013-4-25,44.7,36.3,28.8,35.0,28.7,24.0,93,75,47,30.24,29.89,6,0,0,0.12
2013-4-26,57.0,40.5,28.2,39.0,32.4,25.0,89,74,49,30.25,30.08,6,1,0,0.02
2013-4-27,64.6,49.2,33.1,50.0,40.0,31.0,94,73,48,30.18,29.98,3,1,0,0.00
2013-4-28,69.9,58.6,48.2,46.0,42.6,36.0,83,59,37,29.99,29.75,5,2,0,0.00
2013-4-29,61.8,55.5,46.3,53.0,47.8,37.0,95,76,53,29.81,29.74,5,1,0,0.10
2013-4-30,69.3,57.7,47.4,58.0,51.6,44.0,93,80,65,29.84,29.60,12,2,0,0.10
2013-5-1,54.1,47.2,37.9,51.0,42.3,32.0,95,83,67,30.43,29.82,8,1,0,0.50
2013-5-2,39.4,34.4,31.7,33.0,31.4,30.0,94,89,75,30.50,30.41,6,2,0,0.15
2013-5-3,36.2,33.2,31.1,34.0,31.4,29.0,94,93,88,30.43,30.26,10,1,0,0.29
2013-5-4,45.4,38.8,34.1,40.0,35.5,33.0,94,88,76,30.26,30.20,9,1,0,0.04
2013-5-5,47.7,40.1,33.0,40.0,35.5,31.0,94,84,72,30.24,30.17,4,1,0,0.00
2013-5-6,50.5,41.3,30.6,41.0,36.2,29.0,95,83,68,30.19,30.10,4,1,0,0.00
2013-5-7,65.9,51.0,36.7,48.0,41.6,35.0,95,73,43,30.15,30.02,4,0,0,0.00
2013-5-8,53.3,47.3,43.8,41.0,37.3,32.0,82,70,47,30.04,30.00,2,0,0,0.00
2013-5-13,-200.0,0.0,200.0,-99.9,-99.9,-99.9,0,0,100,0.00,40.00,0,-999,0,0.00
2013-5-14,66.2,29.9,49.9,44.0,-28.0,-99.9,69,27,43,29.79,0.00,6,-488,0,0.00
2013-5-15,73.5,63.4,50.1,46.0,40.8,33.0,71,47,23,29.75,29.43,9,2,0,0.00
2013-5-16,59.9,46.6,35.0,41.0,37.0,32.0,89,70,47,30.15,29.75,5,1,0,0.00
2013-5-17,54.5,44.0,33.7,42.0,37.4,31.0,93,78,59,30.25,30.15,5,1,0,0.00
2013-5-18,60.9,55.7,49.3,49.0,44.9,41.0,78,67,54,30.17,29.96,4,1,0,0.00
2013-5-19,70.9,60.7,48.8,60.0,52.5,45.0,88,75,64,29.96,29.84,5,1,0,0.00
2013-5-20,62.6,50.3,44.9,60.0,47.7,43.0,95,90,81,29.87,29.73,3,0,0,0.11
2013-5-21,57.1,47.8,43.2,54.0,46.1,42.0,96,93,84,29.78,29.66,3,0,0,0.27
2013-5-22,47.3,43.5,40.5,46.0,42.2,38.0,96,95,91,30.00,29.76,6,1,0,0.25
2013-5-23,44.6,39.4,36.0,38.0,32.5,29.0,92,77,57,30.38,30.01,9,2,0,0.02
2013-5-24,49.2,41.2,30.4,35.0,32.0,28.0,93,71,53,30.49,30.38,4,1,0,0.00
2013-5-25,55.0,45.1,33.0,37.0,33.7,31.0,92,67,44,30.47,30.38,4,0,0,0.00
2013-5-26,57.8,46.2,32.8,39.0,34.0,30.0,91,66,41,30.43,30.25,5,1,0,0.00
2013-5-27,67.2,52.5,37.5,43.0,38.2,33.0,86,61,29,30.27,30.00,6,1,0,0.00
2013-5-28,58.0,54.0,49.4,51.0,44.5,39.0,87,71,58,29.99,29.76,2,0,0,0.00
2013-5-29,74.0,60.9,52.6,60.0,54.4,48.0,91,79,60,29.86,29.76,3,1,0,0.00
2013-5-30,86.1,70.3,58.9,66.0,61.9,56.0,94,77,48,29.85,29.68,6,1,0,0.24
2013-5-31,80.4,69.1,59.1,63.0,60.8,53.0,94,77,46,29.73,29.62,6,2,0,0.06
2013-6-1,70.4,54.3,42.8,64.0,50.6,41.0,96,88,69,29.77,29.61,4,1,0,0.60
2013-6-2,49.5,42.6,36.0,41.0,38.0,34.0,100,84,64,30.06,29.77,6,1,0,0.05
2013-6-3,54.5,44.2,34.4,39.0,34.7,25.0,95,72,32,30.15,30.05,10,1,0,0.00
2013-6-4,59.3,49.3,35.2,40.0,34.4,30.0,90,60,34,30.26,30.17,3,0,0,0.00
2013-6-5,52.2,47.7,45.3,49.0,43.7,40.0,94,86,75,30.23,30.14,1,0,0,0.05
2013-6-6,54.2,49.1,45.3,49.0,46.2,44.0,95,90,75,30.15,30.05,2,0,0,0.12
2013-6-7,63.2,52.1,43.1,51.0,44.4,40.0,95,78,47,30.07,29.96,4,0,0,0.00
2013-6-8,66.2,53.7,41.8,50.0,41.9,35.0,92,68,36,30.06,29.96,4,0,0,0.00
2013-6-9,67.9,58.5,48.4,51.0,46.9,44.0,84,66,47,30.11,29.97,4,0,0,0.00
2013-6-10,72.1,62.8,54.6,62.0,55.0,50.0,91,77,58,29.97,29.79,3,0,0,0.00
2013-6-11,72.0,61.0,51.3,64.0,56.6,49.0,93,86,73,29.89,29.81,4,0,0,0.00
2013-6-12,76.9,63.6,51.6,55.0,51.6,50.0,94,68,41,29.90,29.80,3,0,0,0.00
2013-6-23,-200.0,0.0,200.0,-99.9,-99.9,-99.9,0,0,100,0.00,40.00,0,-999,0,0.00
2013-6-24,73.2,15.1,63.1,61.0,-65.3,-99.9,81,15,58,29.82,0.00,2,-781,0,0.00
2013-6-25,82.1,70.1,61.7,66.0,61.3,58.0,90,75,49,29.82,29.78,4,0,0,0.01
2013-6-26,85.9,72.5,60.3,72.0,65.6,58.0,95,80,57,29.79,29.67,5,0,0,0.22
2013-6-27,75.7,66.1,60.1,68.0,63.5,58.0,96,91,78,29.74,29.66,2,0,0,0.49
2013-6-28,62.1,58.2,54.7,61.0,56.9,53.0,96,95,92,29.75,29.63,4,0,0,0.12
2013-6-29,63.3,58.9,53.7,57.0,52.9,44.0,97,82,55,29.93,29.74,6,0,0,0.04
2013-6-30,72.2,60.6,48.8,56.0,48.6,44.0,86,67,37,30.09,29.93,2,0,0,0.00
2013-7-1,62.1,55.3,44.0,50.0,46.5,37.0,91,74,44,30.27,30.10,5,0,0,0.00
2013-7-2,65.0,53.6,40.4,54.0,44.6,38.0,93,74,46,30.24,30.13,2,0,0,0.00
2013-7-3,74.7,61.2,46.6,54.0,48.3,43.0,90,66,37,30.14,30.00,3,0,0,0.00
2013-7-4,82.3,71.9,61.9,64.0,59.3,52.0,82,66,45,30.01,29.91,3,1,0,0.00
2013-7-5,86.8,76.7,66.8,63.0,60.1,57.0,79,58,39,29.95,29.86,4,1,0,0.00
2013-7-6,89.5,76.7,68.0,66.0,62.4,60.0,81,63,39,29.91,29.84,5,1,0,0.00
2013-7-7,76.5,67.8,57.5,68.0,62.3,55.0,95,83,67,29.99,29.84,4,0,0,0.15
2013-7-8,65.0,57.9,54.1,63.0,55.8,53.0,96,92,84,30.03,29.94,3,0,0,0.43
2013-7-9,75.0,66.7,57.3,69.0,63.3,56.0,97,89,79,30.02,29.67,4,0,0,0.01
2013-7-10,70.0,66.1,61.8,65.0,57.6,53.0,94,75,56,29.93,29.66,5,1,0,0.04
2013-7-11,72.1,63.2,52.9,58.0,53.6,50.0,91,72,49,30.13,29.93,3,0,0,0.00
2013-7-12,83.2,70.8,58.1,64.0,58.5,54.0,85,66,46,30.10,29.99,5,1,0,0.00
2013-7-13,85.5,75.5,68.0,67.0,59.3,52.0,71,58,46,30.09,29.99,7,1,0,0.00
2013-7-14,87.7,74.7,64.5,65.0,60.7,55.0,85,63,41,30.19,30.09,5,1,0,0.00
2013-7-15,79.5,73.1,65.6,69.0,65.7,62.0,88,78,68,30.26,30.18,3,0,0,0.00
2013-7-16,89.8,76.8,64.8,78.0,71.5,62.0,94,84,57,30.22,30.09,4,0,0,0.23
2013-7-17,83.8,76.2,67.2,73.0,69.8,64.0,95,81,65,30.18,30.08,2,0,0,0.11
2013-7-18,85.2,72.9,68.9,76.0,70.7,68.0,97,93,73,30.08,29.68,5,0,0,1.28
2013-7-19,80.2,71.2,64.5,73.0,64.9,57.0,97,81,55,29.76,29.56,7,1,0,0.49
2013-7-20,67.5,59.3,47.2,58.0,50.8,45.0,90,74,63,30.06,29.73,11,1,0,0.00
2013-7-21,67.1,55.6,43.2,56.0,49.5,41.0,96,81,62,30.08,29.92,3,0,0,0.00
2013-7-22,81.9,67.6,55.6,70.0,59.5,50.0,94,76,57,29.92,29.56,4,1,0,0.35
2013-7-23,62.1,57.1,52.3,59.0,51.0,47.0,95,81,62,30.01,29.67,6,1,0,0.00
2013-7-24,71.0,59.7,48.7,55.0,49.9,46.0,91,72,49,30.07,29.99,2,0,0,0.00
2013-7-25,76.8,65.5,58.5,62.0,57.5,54.0,93,76,54,29.99,29.87,4,1,0,0.17
2013-7-26,64.4,57.4,48.4,62.0,55.7,47.0,95,94,91,29.94,29.84,3,0,0,0.70
2013-7-27,55.8,51.0,47.1,51.0,47.9,46.0,96,89,78,29.92,29.84,2,0,0,0.00
2013-7-28,52.9,50.4,47.4,52.0,48.9,45.0,96,94,89,29.98,29.76,2,0,0,0.33
2013-7-29,69.5,57.9,49.7,57.0,51.9,49.0,97,83,53,30.16,29.97,2,0,0,0.00
2013-7-30,75.5,65.3,52.2,63.0,58.1,50.0,92,78,57,30.15,30.04,4,0,0,0.00
2013-7-31,76.8,66.7,61.4,65.0,60.9,56.0,90,82,62,30.04,29.86,3,0,0,0.01
2013-8-1,69.3,62.9,57.2,59.0,55.8,52.0,88,78,64,29.89,29.84,5,1,0,0.00
2013-8-2,69.1,63.7,57.1,60.0,55.8,52.0,91,76,59,29.93,29.78,3,0,0,0.00
2013-8-3,64.8,59.9,54.5,57.0,53.3,50.0,90,79,71,30.15,29.93,6,1,0,0.00
2013-8-4,68.0,58.6,49.6,55.0,50.1,46.0,93,75,52,30.23,30.08,5,0,0,0.00
2013-8-5,64.3,59.6,51.8,60.0,54.9,47.0,92,84,75,30.08,29.81,3,0,0,0.07
2013-8-6,75.1,65.1,59.7,66.0,61.5,58.0,95,88,71,29.83,29.71,3,0,0,0.38
2013-8-7,65.1,59.7,50.1,60.0,56.3,48.0,96,89,58,29.99,29.69,3,0,0,0.05
2013-8-8,68.4,59.4,50.4,58.0,52.6,48.0,93,79,62,30.03,29.96,3,0,0,0.00
2013-8-9,69.9,61.5,51.8,57.0,53.8,49.0,92,77,50,30.05,29.90,5,0,0,0.01
2013-8-10,68.9,59.8,51.1,57.0,52.6,48.0,92,78,58,30.14,30.05,5,1,0,0.00
2013-8-11,75.3,62.6,53.2,63.0,56.4,51.0,93,81,52,30.09,30.00,3,0,0,0.02
2013-8-12,70.4,58.4,47.3,62.0,54.6,45.0,95,87,72,30.05,29.90,6,1,0,0.12
2013-8-13,59.3,52.6,46.4,52.0,47.9,44.0,94,84,70,30.18,30.05,5,1,0,0.00
2013-8-14,65.7,55.8,47.6,54.0,48.5,44.0,90,77,53,30.20,30.10,3,0,0,0.00
2013-8-15,74.9,62.8,49.2,57.0,50.9,44.0,89,67,44,30.10,30.04,5,0,0,0.00
2013-8-16,76.5,64.5,54.9,61.0,55.4,50.0,90,74,49,30.15,30.09,3,0,0,0.00
2013-8-17,81.1,69.2,61.2,63.0,58.3,54.0,86,70,46,30.19,30.09,4,0,0,0.00
2013-8-18,79.3,68.6,56.4,61.0,58.1,54.0,91,71,48,30.16,30.00,3,0,0,0.00
2013-8-19,81.5,72.1,61.9,68.0,62.5,57.0,84,72,61,30.00,29.87,5,0,0,0.00
2013-8-20,86.0,77.1,68.4,70.0,66.5,63.0,84,71,52,29.95,29.86,3,0,0,0.00
2013-8-21,87.9,74.4,66.8,75.0,68.4,65.0,95,82,63,29.95,29.78,4,1,0,0.21
2013-8-22,75.0,64.1,53.3,66.0,56.8,51.0,96,79,48,30.16,29.95,5,0,0,0.01
2013-8-23,74.4,62.2,50.0,61.0,54.7,48.0,95,78,57,30.23,30.13,2,0,0,0.00
2013-8-24,80.3,70.9,62.4,62.0,58.7,56.0,80,66,50,30.19,30.03,7,2,0,0.00
2013-8-25,91.4,76.7,67.8,76.0,69.3,59.0,90,78,58,30.03,29.87,9,1,0,0.02
2013-8-26,82.4,72.3,66.4,74.0,68.2,65.0,95,87,74,29.97,29.84,2,0,0,0.38
2013-8-27,80.8,71.6,65.6,74.0,68.5,64.0,96,90,74,29.92,29.81,3,0,0,0.02
2013-8-28,79.1,68.0,62.1,70.0,64.7,61.0,97,89,71,30.05,29.90,3,0,0,0.02
2013-8-29,86.3,73.6,63.4,72.0,66.8,62.0,95,81,53,30.05,29.80,5,0,0,0.00
2013-8-30,72.3,66.9,60.7,68.0,63.7,58.0,95,89,81,29.95,29.73,10,1,0,0.02
2013-8-31,75.9,66.3,59.9,69.0,62.4,58.0,94,87,75,29.94,29.76,2,0,0,0.13
2013-9-1,74.9,64.6,53.9,68.0,61.3,51.0,96,89,70,29.86,29.64,6,1,0,0.35
2013-9-2,60.0,54.3,50.7,52.0,49.7,48.0,92,84,69,30.00,29.85,9,1,0,0.01
2013-9-3,70.8,60.1,51.8,59.0,53.7,49.0,91,80,55,30.02,29.86,4,0,0,0.00
2013-9-4,66.8,56.1,45.1,59.0,49.2,43.0,92,78,66,30.22,29.86,7,1,0,0.00
2013-9-5,64.7,53.4,43.3,52.0,47.2,42.0,96,81,60,30.34,30.16,4,0,0,0.00
2013-9-6,77.7,65.4,53.3,71.0,60.5,51.0,94,84,74,30.16,29.86,3,1,0,0.16
2013-9-7,72.5,64.2,53.8,68.0,61.8,52.0,95,91,84,30.11,29.82,4,0,0,0.01
2013-9-8,63.2,56.9,50.6,57.0,53.6,49.0,96,89,76,30.20,30.02,3,0,0,0.01
2013-9-9,69.5,63.3,55.6,66.0,60.1,52.0,94,89,86,30.02,29.69,3,0,0,0.00
2013-9-10,77.3,68.0,62.1,71.0,65.4,61.0,97,91,76,29.88,29.68,2,0,0,0.02
2013-9-11,79.3,66.5,58.2,66.0,61.9,56.0,96,86,55,29.95,29.86,1,0,0,0.06
2013-9-12,58.6,54.0,47.8,56.0,50.7,44.0,93,88,79,30.19,29.92,6,1,0,0.12
2013-9-13,54.8,49.2,43.2,45.0,41.7,39.0,91,76,61,30.29,30.14,12,1,0,0.00
2013-9-14,68.3,57.1,45.6,57.0,47.8,40.0,85,72,53,30.14,29.91,4,1,0,0.00
2013-9-15,63.1,52.3,46.9,54.0,48.1,41.0,94,86,65,30.31,29.89,12,1,0,0.23
2013-9-16,55.5,48.3,41.1,45.0,42.2,39.0,94,80,63,30.46,30.32,3,0,0,0.00
2013-9-17,66.1,55.0,44.0,52.0,45.8,40.0,92,72,49,30.37,30.10,5,1,0,0.00
2013-9-18,64.1,59.0,53.2,62.0,56.3,50.0,93,90,87,30.10,29.87,3,0,0,0.01
2013-9-19,74.8,68.1,64.0,70.0,65.3,62.0,95,90,83,29.87,29.65,4,1,0,0.91
2013-9-20,68.1,63.2,52.8,65.0,60.3,49.0,97,90,74,29.75,29.59,4,0,0,0.13
2013-9-21,53.0,47.9,43.6,50.0,44.3,40.0,95,87,76,29.99,29.75,3,0,0,0.09
2013-9-22,49.5,45.0,37.8,43.0,40.6,36.0,94,85,72,30.14,29.99,3,0,0,0.00
2013-9-23,62.2,49.5,37.3,50.0,43.6,36.0,95,81,61,30.18,30.09,2,0,0,0.00
2013-9-24,66.2,55.1,46.0,56.0,49.9,44.0,94,83,62,30.14,30.01,2,0,0,0.00
2013-9-25,64.9,55.0,47.7,57.0,51.4,46.0,96,88,72,30.05,30.01,3,0,0,0.00
2013-9-26,71.0,57.2,45.2,57.0,50.8,43.0,96,80,56,30.12,30.03,2,0,0,0.00
2013-9-27,75.1,62.9,53.5,58.0,53.0,49.0,87,72,48,30.14,30.02,4,1,0,0.00
2013-9-28,73.3,63.9,55.3,60.0,55.2,49.0,91,75,56,30.03,29.70,6,1,0,0.07
2013-9-29,67.5,55.8,44.7,52.0,47.8,43.0,94,77,44,29.99,29.81,3,0,0,0.00
2013-9-30,69.0,59.3,50.9,50.0,47.6,45.0,83,67,47,29.95,29.69,6,2,0,0.00
2013-10-1,76.6,62.8,53.3,59.0,49.6,36.0,80,65,25,29.83,29.61,4,1,0,0.00
2013-10-2,70.1,58.4,50.7,49.0,41.4,36.0,80,55,29,30.05,29.83,2,0,0,0.00
2013-10-3,58.1,55.0,51.6,54.0,50.5,43.0,95,85,60,30.05,29.99,2,0,0,0.20
2013-10-4,57.9,55.5,53.1,53.0,51.6,50.0,92,87,81,30.16,30.02,3,0,0,0.03
2013-10-5,54.4,50.4,48.7,52.0,48.6,47.0,96,93,87,30.17,29.86,2,0,0,1.12
2013-10-6,61.0,54.3,49.5,60.0,53.2,48.0,97,96,93,29.86,29.60,2,0,0,0.06
2013-10-7,53.4,47.7,43.4,48.0,43.9,40.0,96,87,70,30.04,29.64,4,0,0,0.04
2013-10-8,66.8,54.8,43.1,54.0,46.0,39.0,89,74,49,30.11,29.98,7,1,0,0.00
2013-10-9,72.9,63.2,54.6,54.0,51.1,48.0,80,66,48,30.10,29.98,7,2,0,0.00
2013-10-10,71.1,61.2,52.6,53.0,48.8,45.0,86,66,40,30.14,30.06,3,0,0,0.00
2013-10-11,68.4,57.3,46.5,54.0,49.7,44.0,95,77,58,30.12,29.96,3,0,0,0.00
2013-10-12,65.0,58.0,49.1,60.0,54.1,45.0,94,87,78,29.98,29.82,4,1,0,0.14
2013-10-13,53.7,48.3,38.5,46.0,42.0,36.0,92,79,65,30.43,29.99,6,0,0,0.00
2013-10-14,54.6,45.0,35.8,46.0,39.9,33.0,93,82,68,30.49,30.31,3,0,0,0.00
2013-10-15,50.9,47.0,42.1,50.0,44.7,39.0,95,91,85,30.30,29.72,1,0,0,0.22
2013-10-16,51.1,46.0,37.6,50.0,43.7,35.0,96,92,80,29.91,29.68,2,0,0,0.17
2013-10-17,53.7,42.3,34.4,43.0,37.5,33.0,98,84,60,29.91,29.76,3,0,0,0.00
2013-10-18,46.2,43.1,39.7,44.0,41.3,38.0,95,93,89,29.88,29.75,2,0,0,0.11
2013-10-19,48.9,40.2,34.0,39.0,36.4,33.0,95,87,59,29.86,29.67,2,0,0,0.03
2013-10-20,46.1,39.9,34.7,39.0,35.9,33.0,94,86,69,29.81,29.70,2,0,0,0.10
2013-10-21,41.5,36.4,32.2,36.0,31.4,25.0,95,82,65,29.76,29.65,6,0,0,0.08
2013-10-22,36.8,34.3,32.3,35.0,32.0,27.0,95,91,81,29.96,29.64,4,0,0,0.39
2013-10-23,39.6,34.8,30.6,32.0,28.6,26.0,88,78,62,29.94,29.88,5,0,0,0.01
2013-10-24,42.1,36.1,32.4,33.0,30.6,28.0,92,80,67,30.19,29.92,2,0,0,0.00
2013-10-25,42.1,37.2,31.3,34.0,29.3,26.0,90,74,54,30.25,29.61,7,1,0,0.00
2013-10-26,43.4,36.9,32.6,38.0,34.1,31.0,94,89,75,30.00,29.56,3,0,0,0.17
2013-10-27,43.6,36.9,32.1,37.0,33.1,30.0,96,86,68,30.16,29.83,3,0,0,0.09
2013-10-28,36.4,33.5,28.2,31.0,25.2,23.0,83,72,59,30.54,30.17,7,1,0,0.01
2013-10-29,37.5,31.3,25.6,31.0,25.3,22.0,91,79,58,30.54,30.24,2,0,0,0.00
2013-10-30,49.7,41.0,33.0,48.0,39.2,31.0,95,93,88,30.24,29.79,5,0,0,0.03
2013-10-31,52.7,49.0,46.0,50.0,47.5,45.0,96,94,89,29.78,29.17,3,0,0,0.40
2013-11-1,45.5,41.3,37.3,44.0,40.0,36.0,96,95,92,29.76,29.14,3,0,0,0.35
2013-11-2,38.7,37.1,34.7,36.0,33.5,30.0,95,87,73,30.19,29.76,6,0,0,0.07
2013-11-3,44.9,37.7,31.5,37.0,31.9,27.0,91,80,62,30.34,30.20,2,0,0,0.01
2013-11-4,48.4,45.7,41.9,43.0,40.5,37.0,86,82,76,30.24,29.99,10,2,0,0.00
2013-11-5,52.1,43.8,32.9,43.0,35.0,28.0,93,74,40,30.23,30.03,4,0,0,0.20
2013-11-6,39.5,36.0,33.5,37.0,32.8,27.0,95,88,77,30.04,29.84,7,1,0,0.68
2013-11-7,36.9,33.6,32.7,31.0,29.0,27.0,89,83,74,30.14,30.04,2,0,0,0.01
2013-11-8,41.1,35.4,32.2,32.0,26.8,22.0,90,72,47,30.21,29.93,4,0,0,0.00
2013-11-9,39.3,37.8,34.9,37.0,35.3,32.0,94,90,86,29.91,29.60,4,1,0,0.28
2013-11-10,37.9,35.6,33.4,34.0,31.1,28.0,94,84,73,30.21,29.84,3,0,0,0.08
2013-11-11,37.3,26.1,22.9,32.0,20.9,15.0,91,81,65,30.54,30.00,3,0,0,0.00
2013-11-12,28.4,23.1,18.6,17.0,14.3,12.0,80,69,60,30.65,30.43,3,0,0,0.00
2013-11-13,47.9,34.0,16.6,33.0,22.5,13.0,84,64,53,30.43,29.74,6,1,0,0.11
2013-11-14,44.0,39.9,35.9,35.0,32.4,31.0,83,75,67,29.81,29.76,2,0,0,0.00
2013-11-15,53.3,40.2,29.5,39.0,34.1,27.0,93,80,57,29.86,29.79,5,0,0,0.00
2013-11-16,49.8,42.5,36.0,48.0,39.3,33.0,94,89,82,29.84,29.34,9,1,0,0.51
2013-11-17,53.9,49.2,38.3,51.0,46.4,33.0,95,90,81,29.37,29.16,3,1,0,0.02
2013-11-18,38.0,30.9,27.7,32.0,24.4,19.0,87,77,69,30.21,29.29,6,1,0,0.00
2013-11-19,33.7,28.5,22.9,27.0,20.3,17.0,86,72,54,30.40,30.21,5,0,0,0.00
2013-11-20,42.1,38.1,33.1,33.0,31.3,27.0,83,77,64,30.20,30.14,9,2,0,0.00
2013-11-21,39.1,35.5,28.5,35.0,32.6,26.0,92,89,83,30.34,30.13,3,0,0,0.03
2013-11-22,29.3,26.7,20.6,27.0,21.3,13.0,93,81,66,30.48,30.34,1,0,0,0.00
2013-11-23,20.1,13.5,11.2,14.0,9.1,5.0,88,82,70,30.68,30.39,4,0,0,0.00
2013-11-24,22.1,15.5,9.7,9.0,6.4,3.0,84,68,50,30.65,30.01,7,1,0,0.00
2013-11-25,35.3,30.4,22.3,29.0,22.1,8.0,81,72,55,30.00,29.77,11,2,0,0.01
2013-11-26,34.1,22.2,13.9,27.0,15.5,6.0,88,75,64,30.20,29.86,2,0,0,0.00
2013-11-27,23.6,21.0,16.3,18.0,16.1,13.0,90,82,65,30.28,30.17,13,1,0,0.00
2013-11-28,25.1,18.9,12.6,18.0,14.8,10.0,92,84,70,30.49,30.22,0,0,0,0.00
2013-11-29,27.2,21.4,11.5,21.0,16.4,9.0,92,81,68,30.62,30.35,7,0,0,0.00
2013-11-30,33.6,29.6,25.2,30.0,23.8,18.0,92,79,71,30.34,30.06,7,1,0,0.03
2013-12-1,32.9,31.6,29.4,30.0,28.0,26.0,92,86,75,30.19,30.04,2,0,0,0.00
2013-12-2,34.3,30.1,26.9,28.0,25.7,24.0,93,84,70,30.03,29.92,2,0,0,0.04
2013-12-3,29.4,26.6,24.5,25.0,22.6,20.0,92,85,79,30.04,29.96,1,0,0,0.00
2013-12-4,27.3,27.3,27.3,25.0,25.0,25.0,92,92,92,30.01,30.01,0,0,0,0.00
2013-12-7,13.3,6.3,-0.4,2.0,-18.6,-99.9,73,54,58,30.61,0.00,2,-169,0,0.00
2013-12-8,13.0,5.5,-2.6,8.0,-0.8,-8.0,88,76,54,30.59,30.15,1,0,0,0.00
2013-12-9,17.2,10.7,-1.1,12.0,4.9,-8.0,89,78,62,30.15,29.80,4,0,0,0.00
2013-12-10,-1.4,-2.2,-2.8,-8.0,-8.9,-9.0,73,73,72,30.02,30.01,1,0,0,0.00
2013-12-12,12.3,11.5,11.8,7.0,0.4,-99.9,81,70,69,30.17,30.13,0,-43,0,0.00
2013-12-13,12.3,8.7,5.9,8.0,3.4,1.0,85,79,69,30.48,30.15,2,0,0,0.00
2013-12-14,15.0,11.0,7.1,10.0,5.9,0.0,88,80,66,30.46,29.97,0,0,0,0.00
2013-12-15,17.6,14.6,12.2,14.0,11.0,8.0,92,85,73,30.10,29.80,4,0,0,0.00
2013-12-16,16.5,11.0,-1.3,13.0,7.5,-5.0,90,86,79,30.16,29.92,3,0,0,0.00
2013-12-17,27.6,17.0,9.3,23.0,13.3,6.0,89,85,79,30.01,29.81,1,0,0,0.00
2013-12-18,19.0,15.9,13.6,12.0,10.3,9.0,84,78,72,30.05,29.74,2,0,0,0.00
2013-12-19,25.2,19.7,16.9,22.0,15.7,10.0,89,84,72,30.19,29.76,6,1,0,0.00
2013-12-20,23.5,21.3,18.9,20.0,17.9,16.0,96,86,81,30.14,29.93,2,0,0,0.00
2013-12-21,25.7,20.8,11.9,21.0,17.7,9.0,91,87,79,30.09,29.92,1,0,0,0.00
2013-12-22,26.1,23.0,19.3,21.0,18.9,17.0,89,84,73,30.16,29.99,5,1,0,0.00
2013-12-23,19.2,16.8,13.6,17.0,12.5,9.0,92,83,75,30.43,30.16,5,0,0,0.00
2013-12-24,18.9,14.1,10.9,10.0,7.7,5.0,87,76,59,30.51,30.31,2,0,0,0.00
2013-12-25,17.2,13.9,10.8,12.0,8.4,6.0,87,79,71,30.30,30.04,3,1,0,0.00
2013-12-26,18.0,13.4,4.4,10.0,7.3,1.0,87,77,63,30.27,30.04,2,0,0,0.00
2013-12-27,30.3,18.0,8.1,28.0,14.0,4.0,89,84,80,30.25,29.82,7,1,0,0.00
2013-12-28,35.2,31.8,25.4,31.0,29.0,23.0,94,89,83,29.99,29.82,5,0,0,0.01
2013-12-29,24.4,11.4,1.6,22.0,8.2,-3.0,91,86,82,30.18,29.89,7,1,0,0.00
2013-12-30,6.9,0.8,-4.9,2.0,-4.1,-9.0,84,80,76,30.31,30.17,1,0,0,0.00
2013-12-31,5.7,-0.8,-4.0,-2.0,-6.9,-9.0,80,76,63,30.43,30.14,2,0,0,0.00
2014-1-1,7.3,1.0,-5.4,0.0,-4.8,-11.0,83,77,67,30.56,30.43,1,0,0,0.00
2014-1-2,8.1,3.9,0.0,3.0,-1.6,-6.0,83,78,71,30.50,30.44,1,0,0,0.00